Weather History for Glen Ullin Rgnl, Glen Ullin,, ND

Change the Weather History Date:

Wednesday, January 22, 2014

  Actual Average (KDIK) Record (KDIK)
Temperature  
Mean Temperature 5 °F 17 °F  
Max Temperature 23 °F 27 °F 60 °F (1981)
Min Temperature -13 °F 7 °F -31 °F (1937)
Degree Days  
Heating Degree Days 60 48  
Month to date heating degree days 1077  
Since 1 July heating degree days 4614  
Cooling Degree Days 0 0  
Month to date cooling degree days 0  
Year to date cooling degree days 0  
Moisture  
Dew Point -8 °F    
Average Humidity 66    
Maximum Humidity 80    
Minimum Humidity 55    
Precipitation  
Precipitation 0.00 in 0.01 in 0.27 in (1982)
Month to date precipitation 0.23  
Year to date precipitation 0.23  
Sea Level Pressure  
Sea Level Pressure 30.42 in    
Wind  
Wind Speed 14 mph (North)    
Max Wind Speed 30 mph    
Max Gust Speed 41 mph    
Visibility 8 miles    
Events Rain , Snow    
T = Trace of Precipitation, MM = Missing Value Source: NWS Daily Summary

Daily Weather History Graph

Daily Weather History Graph

Search for Another Location

Airport:

Trip Planner

Search our weather history database for the weather conditions in past years. The results will help you decide how hot, cold, wet, or windy it might be!

Date:

Astronomy

Jan. 22, 2014 Rise Set
Actual Time 7:22 AM MST 4:35 PM MST
Civil Twilight 6:49 AM MST 5:09 PM MST
Nautical Twilight 6:12 AM MST 5:46 PM MST
Astronomical Twilight 5:36 AM MST 6:22 PM MST
Moon 11:38 PM MST (1/22) 9:59 AM MST (1/22)
Length of Visible Light 10h 20m
Length of Day
9h 13m
Waning Gibbous, 65% of the Moon is Illuminated
Jan 22
Waning Gibbous
Jan 23
Last Quarter
Jan 30
New
Feb 6
First Quarter
Feb 14
Full

Hourly Weather History & Observations

Time (MST) Temp. Windchill Dew Point Humidity Pressure Visibility Wind Dir Wind Speed Gust Speed Precip Events Conditions
12:15 AM 23.0 °F 11.7 °F 14.0 °F 68% 30.06 in 10.0 mi West 11.5 mph - N/A   Overcast
12:35 AM 23.0 °F 9.6 °F 17.6 °F 80% 30.05 in 10.0 mi WNW 16.1 mph - N/A   Overcast
12:55 AM 23.0 °F 8.7 °F 17.6 °F 80% 30.04 in 10.0 mi WNW 18.4 mph - N/A   Overcast
1:15 AM 23.0 °F 7.2 °F 17.6 °F 80% 30.05 in 10.0 mi NW 23.0 mph 31.1 mph N/A   Overcast
1:35 AM 23.0 °F 6.0 °F 17.6 °F 80% 30.05 in 10.0 mi NW 27.6 mph 35.7 mph N/A Rain Light Freezing Rain
1:55 AM 23.0 °F 6.0 °F 17.6 °F 80% 30.06 in 10.0 mi NW 27.6 mph 35.7 mph N/A Rain Light Freezing Rain
2:15 AM 23.0 °F 6.6 °F 15.8 °F 74% 30.07 in 10.0 mi NW 25.3 mph 35.7 mph N/A   Overcast
2:55 AM 21.2 °F 5.2 °F 15.8 °F 80% 30.09 in 6.0 mi NNW 21.9 mph 31.1 mph N/A Snow Light Snow
3:15 AM 19.4 °F 0.5 °F 14.0 °F 80% 30.09 in 2.5 mi North 29.9 mph 41.4 mph N/A Snow Light Snow
3:35 AM 19.4 °F 1.8 °F 12.2 °F 74% 30.10 in 10.0 mi North 25.3 mph 36.8 mph N/A Snow Light Snow
3:55 AM 14.0 °F -4.3 °F 6.8 °F 73% 30.14 in 2.5 mi North 21.9 mph 33.4 mph N/A Snow Light Snow
4:15 AM 12.2 °F -6.7 °F 5.0 °F 73% 30.16 in 3.0 mi NNE 21.9 mph 31.1 mph N/A Snow Light Snow
4:35 AM 8.6 °F -10.5 °F 1.4 °F 73% 30.19 in 5.0 mi NNE 19.6 mph 32.2 mph N/A   Haze
4:55 AM 6.8 °F -14.3 °F -0.4 °F 72% 30.21 in 7.0 mi NNE 23.0 mph 33.4 mph N/A   Light Freezing Rain
5:15 AM 5.0 °F -16.2 °F -0.4 °F 78% 30.23 in 3.0 mi NNE 21.9 mph 32.2 mph N/A   Haze
5:35 AM 5.0 °F -15.2 °F -2.2 °F 72% 30.26 in 5.0 mi NNE 19.6 mph 25.3 mph N/A   Haze
5:55 AM 3.2 °F -17.1 °F -4.0 °F 72% 30.28 in 7.0 mi NNE 18.4 mph - N/A   Overcast
6:15 AM 1.4 °F -19.4 °F -5.8 °F 72% 30.31 in 5.0 mi NNE 18.4 mph 25.3 mph N/A   Haze
6:35 AM 1.4 °F -21.0 °F -7.6 °F 66% 30.32 in 8.0 mi NNE 21.9 mph 27.6 mph N/A   Overcast
6:55 AM -0.4 °F -22.3 °F -9.4 °F 66% 30.34 in 10.0 mi NNE 19.6 mph 25.3 mph N/A   Overcast
7:15 AM -2.2 °F -22.2 °F -9.4 °F 71% 30.36 in 4.0 mi NNE 15.0 mph 25.3 mph N/A   Haze
7:35 AM -2.2 °F -22.2 °F -11.2 °F 66% 30.36 in 10.0 mi NNE 15.0 mph 21.9 mph N/A   Mostly Cloudy
7:55 AM -2.2 °F -25.2 °F -13.0 °F 60% 30.37 in 10.0 mi NNE 20.7 mph 26.5 mph N/A   Clear
8:15 AM -4.0 °F -26.4 °F -14.8 °F 60% 30.38 in 10.0 mi NNE 18.4 mph 25.3 mph N/A   Clear
8:35 AM -4.0 °F -25.2 °F -14.8 °F 60% 30.39 in 10.0 mi NNE 16.1 mph - N/A   Clear
8:55 AM -4.0 °F -23.7 °F -14.8 °F 60% 30.41 in 10.0 mi North 13.8 mph - N/A   Clear
9:15 AM -4.0 °F -22.1 °F -14.8 °F 60% 30.43 in 10.0 mi North 11.5 mph 19.6 mph N/A   Clear
9:35 AM -4.0 °F -24.5 °F -14.8 °F 60% 30.44 in 10.0 mi NNE 15.0 mph - N/A   Scattered Clouds
9:55 AM -4.0 °F -23.7 °F -14.8 °F 60% 30.44 in 10.0 mi NNE 13.8 mph - N/A   Partly Cloudy
10:15 AM -2.2 °F -19.9 °F -14.8 °F 55% 30.46 in 10.0 mi NNE 11.5 mph - N/A   Clear
10:55 AM -2.2 °F -18.9 °F -13.0 °F 60% 30.47 in 10.0 mi North 10.4 mph - N/A   Scattered Clouds
11:15 AM -2.2 °F -18.0 °F -14.8 °F 55% 30.47 in 10.0 mi North 9.2 mph 17.3 mph N/A   Scattered Clouds
11:35 AM -2.2 °F -18.9 °F -14.8 °F 55% 30.47 in 10.0 mi North 10.4 mph - N/A   Partly Cloudy
11:55 AM -2.2 °F -18.9 °F -13.0 °F 60% 30.47 in 10.0 mi NNE 10.4 mph - N/A   Partly Cloudy
12:15 PM -2.2 °F -16.8 °F -13.0 °F 60% 30.47 in 10.0 mi North 8.1 mph - N/A   Clear
12:35 PM -0.4 °F -14.7 °F -13.0 °F 55% 30.46 in 10.0 mi NNW 8.1 mph - N/A   Partly Cloudy
12:55 PM -0.4 °F -15.7 °F -13.0 °F 55% 30.47 in 10.0 mi North 9.2 mph - N/A   Scattered Clouds
1:15 PM -0.4 °F -14.7 °F -11.2 °F 60% 30.47 in 10.0 mi NNW 8.1 mph - N/A   Scattered Clouds
1:35 PM 1.4 °F -14.5 °F -11.2 °F 56% 30.47 in 9.0 mi NNW 10.4 mph - N/A   Partly Cloudy
1:55 PM 1.4 °F -14.5 °F -11.2 °F 56% 30.47 in 8.0 mi North 10.4 mph - N/A   Clear
2:15 PM 1.4 °F -12.5 °F -11.2 °F 56% 30.49 in 9.0 mi NW 8.1 mph - N/A   Clear
2:35 PM 1.4 °F -11.3 °F -11.2 °F 56% 30.49 in 8.0 mi North 6.9 mph - N/A   Clear
2:55 PM 1.4 °F -12.5 °F -11.2 °F 56% 30.50 in 8.0 mi NW 8.1 mph - N/A   Clear
3:15 PM 1.4 °F -12.5 °F -11.2 °F 56% 30.50 in 9.0 mi NNW 8.1 mph - N/A   Clear
3:35 PM -0.4 °F -15.7 °F -11.2 °F 60% 30.51 in 6.0 mi North 9.2 mph - N/A   Haze
3:55 PM -0.4 °F -13.4 °F -11.2 °F 60% 30.52 in 5.0 mi North 6.9 mph - N/A   Haze
4:15 PM -0.4 °F -14.7 °F -11.2 °F 60% 30.53 in 6.0 mi North 8.1 mph - N/A   Haze
4:35 PM -2.2 °F -15.6 °F -13.0 °F 60% 30.54 in 9.0 mi North 6.9 mph - N/A   Clear
4:55 PM -4.0 °F -14.6 °F -13.0 °F 65% 30.55 in 6.0 mi North 4.6 mph - N/A   Haze
5:15 PM -4.0 °F -14.6 °F -13.0 °F 65% 30.56 in 4.0 mi North 4.6 mph - N/A   Haze
5:35 PM -5.8 °F -18.4 °F -13.0 °F 71% 30.57 in 3.0 mi North 5.8 mph - N/A   Haze
5:55 PM -5.8 °F -21.2 °F -14.8 °F 65% 30.58 in 5.0 mi North 8.1 mph - N/A   Haze
6:15 PM -7.6 °F -22.1 °F -14.8 °F 71% 30.59 in 10.0 mi North 6.9 mph - N/A   Partly Cloudy
6:35 PM -7.6 °F - -16.6 °F 65% 30.60 in 10.0 mi Calm Calm - N/A   Partly Cloudy
6:55 PM -7.6 °F - -14.8 °F 71% 30.60 in 10.0 mi Calm Calm - N/A   Scattered Clouds
7:15 PM -5.8 °F - -14.8 °F 65% 30.61 in 10.0 mi Calm Calm - N/A   Mostly Cloudy
7:35 PM -7.6 °F -16.5 °F -16.6 °F 65% 30.61 in 10.0 mi WNW 3.5 mph - N/A   Scattered Clouds
7:55 PM -9.4 °F -18.6 °F -18.4 °F 65% 30.61 in 10.0 mi West 3.5 mph - N/A   Partly Cloudy
8:15 PM -9.4 °F - -16.6 °F 71% 30.61 in 10.0 mi Calm Calm - N/A   Scattered Clouds
8:35 PM -11.2 °F -20.6 °F -18.4 °F 70% 30.62 in 10.0 mi West 3.5 mph - N/A   Scattered Clouds
8:55 PM -11.2 °F - -18.4 °F 70% 30.61 in 10.0 mi Calm Calm - N/A   Clear
9:15 PM -9.4 °F - -16.6 °F 71% 30.62 in 10.0 mi Calm Calm - N/A   Clear
9:35 PM -11.2 °F -23.0 °F -18.4 °F 70% 30.62 in 10.0 mi NNW 4.6 mph - N/A   Clear
9:55 PM -13.0 °F -27.0 °F -20.2 °F 70% 30.62 in 10.0 mi WSW 5.8 mph - N/A   Clear
10:15 PM -11.2 °F - -20.2 °F 64% 30.62 in 10.0 mi Calm Calm - N/A   Clear
10:35 PM -13.0 °F - -20.2 °F 70% 30.63 in 10.0 mi Calm Calm - N/A   Clear
10:55 PM -13.0 °F - -20.2 °F 70% 30.63 in 10.0 mi Calm Calm - N/A   Clear
11:15 PM -13.0 °F -25.1 °F -20.2 °F 70% 30.64 in 10.0 mi West 4.6 mph - N/A   Clear
11:35 PM -13.0 °F -25.1 °F -20.2 °F 70% 30.64 in 10.0 mi West 4.6 mph - N/A   Clear
11:55 PM -13.0 °F -22.7 °F -20.2 °F 70% 30.63 in 10.0 mi West 3.5 mph - N/A   Clear